Latest Coastal Weather Observations for Spring Bay

IDT60701

Issued at 12:35 pm EDT Tuesday 25 November 2014 (issued every 10 minutes, with the page automatically refreshed every 10 minutes)

About coastal observations | Map of coastal stations | Coastal observations for TAS | Marine services | Other Formats
Station Details ID: 092133 Name: SPRING BAY NTC AWS Lat: -42.55 Lon: 147.93 Height: 0.0 m
Data from the previous 72 hours. | See also: Recent months for locations in Tasmania
Date/Time
EDT
Temp

°C
Wind Pressure Rain
since 9am
mm
Weather Cloud Vis
km
Sea
Height
m
Swell
Dir
 
Speed
knots
Gust
knots
hPa Trend Height
m
Period
s
Dir
25/12:30pm 16.1 - - - 1006.0 - - - - - - - - -
25/12:00pm 15.8 - - - 1006.0 - - - - - - - - -
25/11:30am 15.7 - - - 1005.5 - - - - - - - - -
25/11:00am 15.7 - - - 1005.3 - - - - - - - - -
25/10:30am 15.4 - - - 1004.9 - - - - - - - - -
25/10:00am 15.1 - - - 1004.8 - - - - - - - - -
25/09:30am 14.8 - - - 1004.6 - - - - - - - - -
25/09:00am 14.7 - - - 1004.1 - - - - - - - - -
25/08:30am 14.4 - - - 1003.7 - - - - - - - - -
25/08:00am 14.1 - - - 1003.1 - - - - - - - - -
25/07:30am 13.6 - - - 1002.8 - - - - - - - - -
25/07:00am 13.3 - - - 1002.6 - - - - - - - - -
25/06:30am 12.7 - - - 1002.2 - - - - - - - - -
25/06:00am 12.9 - - - 1001.6 - - - - - - - - -
25/05:30am 12.6 - - - 1001.2 - - - - - - - - -
25/05:00am 12.5 - - - 1000.9 - - - - - - - - -
25/04:30am 12.6 - - - 1001.0 - - - - - - - - -
25/04:00am 12.9 - - - 1000.8 - - - - - - - - -
25/03:30am 12.7 - - - 1000.7 - - - - - - - - -
25/03:00am 12.6 - - - 1000.6 - - - - - - - - -
25/02:30am 12.3 - - - 1001.0 - - - - - - - - -
25/02:00am 12.4 - - - 1001.3 - - - - - - - - -
25/01:30am 12.7 - - - 1001.3 - - - - - - - - -
25/01:00am 12.5 - - - 1001.9 - - - - - - - - -
25/12:30am 12.7 - - - 1002.2 - - - - - - - - -
25/12:00am 13.1 - - - 1002.3 - - - - - - - - -
 
Date/Time
EDT
Temp

°C
Wind Pressure Rain
since 9am
mm
Weather Cloud Vis
km
Sea
Height
m
Swell
Dir
 
Speed
knots
Gust
knots
hPa Trend Height
m
Period
s
Dir
24/11:30pm 13.6 - - - 1002.5 - - - - - - - - -
24/11:00pm 14.0 - - - 1002.8 - - - - - - - - -
24/10:30pm 14.4 - - - 1002.8 - - - - - - - - -
24/10:00pm 14.8 - - - 1002.3 - - - - - - - - -
24/09:30pm 15.3 - - - 1002.3 - - - - - - - - -
24/09:00pm 15.7 - - - 1001.9 - - - - - - - - -
24/08:30pm 15.8 - - - 1001.8 - - - - - - - - -
24/08:00pm 15.6 - - - 1001.5 - - - - - - - - -
24/07:30pm 15.7 - - - 1001.3 - - - - - - - - -
24/07:00pm 15.7 - - - 1001.3 - - - - - - - - -
24/06:30pm 15.7 - - - 1001.5 - - - - - - - - -
24/06:00pm 16.1 - - - 1001.7 - - - - - - - - -
24/05:30pm 15.8 - - - 1001.7 - - - - - - - - -
24/05:00pm 15.7 - - - 1002.1 - - - - - - - - -
24/04:30pm 15.4 - - - 1002.0 - - - - - - - - -
24/04:00pm 15.9 - - - 1002.4 - - - - - - - - -
24/03:30pm 15.8 - - - 1003.3 - - - - - - - - -
24/03:00pm 15.7 - - - 1003.8 - - - - - - - - -
24/02:30pm 15.6 - - - 1004.5 - - - - - - - - -
24/02:00pm 15.4 - - - 1005.2 - - - - - - - - -
24/01:30pm 15.2 - - - 1006.1 - - - - - - - - -
24/01:00pm 15.3 - - - 1006.3 - - - - - - - - -
24/12:30pm 15.9 - - - 1006.3 - - - - - - - - -
24/12:00pm 15.5 - - - 1006.6 - - - - - - - - -
24/11:30am 15.2 - - - 1007.7 - - - - - - - - -
24/11:00am 15.0 - - - 1008.4 - - - - - - - - -
24/10:30am 15.2 - - - 1008.8 - - - - - - - - -
24/10:00am 16.0 - - - 1008.4 - - - - - - - - -
24/09:30am 15.5 - - - 1008.6 - - - - - - - - -
24/09:00am 14.0 - - - 1009.1 - - - - - - - - -
24/08:30am 14.0 - - - 1009.5 - - - - - - - - -
24/08:00am 13.4 - - - 1009.1 - - - - - - - - -
24/07:30am 13.1 - - - 1008.8 - - - - - - - - -
24/07:00am 12.3 - - - 1008.2 - - - - - - - - -
24/06:30am 12.3 - - - 1009.1 - - - - - - - - -
24/06:00am 11.8 - - - 1009.0 - - - - - - - - -
24/05:30am 10.9 - - - 1009.3 - - - - - - - - -
24/05:00am 11.3 - - - 1009.5 - - - - - - - - -
24/04:30am 11.2 - - - 1009.4 - - - - - - - - -
24/04:00am 12.4 - - - 1009.7 - - - - - - - - -
24/03:30am 12.9 - - - 1009.7 - - - - - - - - -
24/03:00am 13.2 - - - 1009.9 - - - - - - - - -
24/02:30am 13.7 - - - 1010.1 - - - - - - - - -
24/02:00am 14.0 - - - 1010.2 - - - - - - - - -
24/01:30am 13.5 - - - 1010.7 - - - - - - - - -
24/01:00am 14.3 - - - 1011.1 - - - - - - - - -
24/12:30am 14.6 - - - 1011.3 - - - - - - - - -
24/12:00am 14.8 - - - 1011.5 - - - - - - - - -
 
Date/Time
EDT
Temp

°C
Wind Pressure Rain
since 9am
mm
Weather Cloud Vis
km
Sea
Height
m
Swell
Dir
 
Speed
knots
Gust
knots
hPa Trend Height
m
Period
s
Dir
23/11:30pm 15.0 - - - 1011.4 - - - - - - - - -
23/11:00pm 14.9 - - - 1011.8 - - - - - - - - -
23/10:30pm 14.8 - - - 1011.9 - - - - - - - - -
23/10:00pm 14.8 - - - 1011.9 - - - - - - - - -
23/09:30pm 14.7 - - - 1011.8 - - - - - - - - -
23/09:00pm 14.9 - - - 1011.6 - - - - - - - - -
23/08:30pm 15.5 - - - 1011.4 - - - - - - - - -
23/08:00pm 15.4 - - - 1011.2 - - - - - - - - -
23/07:30pm 15.5 - - - 1010.6 - - - - - - - - -
23/07:00pm 15.6 - - - 1010.6 - - - - - - - - -
23/06:30pm 15.7 - - - 1010.2 - - - - - - - - -
23/06:00pm 15.6 - - - 1010.2 - - - - - - - - -
23/05:30pm 15.7 - - - 1009.9 - - - - - - - - -
23/05:00pm 15.9 - - - 1009.7 - - - - - - - - -
23/04:30pm 15.9 - - - 1009.4 - - - - - - - - -
23/04:00pm 16.3 - - - 1009.4 - - - - - - - - -
23/03:30pm 16.0 - - - 1009.6 - - - - - - - - -
23/03:00pm 16.3 - - - 1009.4 - - - - - - - - -
23/02:30pm 16.3 - - - 1009.3 - - - - - - - - -
23/02:00pm 16.3 - - - 1009.2 - - - - - - - - -
23/01:30pm 16.5 - - - 1009.0 - - - - - - - - -
23/01:00pm 17.0 - - - 1008.7 - - - - - - - - -
23/12:30pm 16.3 - - - 1008.5 - - - - - - - - -
23/12:00pm 16.6 - - - 1008.5 - - - - - - - - -
23/11:30am 16.4 - - - 1008.5 - - - - - - - - -
23/11:00am 16.6 - - - 1008.2 - - - - - - - - -
23/10:30am 18.6 - - - 1008.0 - - - - - - - - -
23/10:00am 18.9 - - - 1007.7 - - - - - - - - -
23/09:30am 18.9 - - - 1007.7 - - - - - - - - -
23/09:00am 17.6 - - - 1007.6 - - - - - - - - -
23/08:30am 17.8 - - - 1007.2 - - - - - - - - -
23/08:00am 17.4 - - - 1007.0 - - - - - - - - -
23/07:30am 17.3 - - - 1006.5 - - - - - - - - -
23/07:00am 16.2 - - - 1005.9 - - - - - - - - -
23/06:30am 14.8 - - - 1005.4 - - - - - - - - -
23/06:00am 14.1 - - - 1004.6 - - - - - - - - -
23/05:30am 14.0 - - - 1004.1 - - - - - - - - -
23/05:00am 14.2 - - - 1003.9 - - - - - - - - -
23/04:30am 15.1 - - - 1003.7 - - - - - - - - -
23/04:00am 15.5 - - - 1003.2 - - - - - - - - -
23/03:30am 15.9 - - - 1003.2 - - - - - - - - -
23/03:00am 16.2 - - - 1003.0 - - - - - - - - -
23/02:30am 16.0 - - - 1002.7 - - - - - - - - -
23/02:00am 16.9 - - - 1002.6 - - - - - - - - -
23/01:30am 17.5 - - - 1002.8 - - - - - - - - -
23/01:00am 17.7 - - - 1003.1 - - - - - - - - -
23/12:30am 18.0 - - - 1003.5 - - - - - - - - -
23/12:00am 18.4 - - - 1003.4 - - - - - - - - -

Other Formats:

Comma delimited format used in spreadsheet applications
http://www.bom.gov.au/fwo/IDT60701/IDT60701.95987.axf

JavaScript Object Notation format (JSON) in row-major order
http://www.bom.gov.au/fwo/IDT60701/IDT60701.95987.json